Kimball, NE

10:05 PM MST on February 13, 2016 (GMT -0700)
Kimball Municipal-Arraj

Weather History for KIBM - April, 2013

Change the Weather History Date:

Wednesday, April 24, 2013

  Actual Average (KSNY) Record (KSNY)
Temperature  
Mean Temperature 37 °F 50 °F  
Max Temperature 51 °F 65 °F 92 °F (2012)
Min Temperature 23 °F 36 °F 17 °F (1958)
Degree Days  
Heating Degree Days 28 15  
Month to date heating degree days 448  
Since 1 July heating degree days 5833  
Cooling Degree Days 0 0  
Month to date cooling degree days 0  
Year to date cooling degree days 0  
Moisture  
Dew Point 18 °F    
Average Humidity 51    
Maximum Humidity 87    
Minimum Humidity 22    
Precipitation  
Precipitation 0.00 in 0.08 in 1.51 in (2007)
Month to date precipitation 1.54  
Year to date precipitation 3.16  
Sea Level Pressure  
Sea Level Pressure 30.12 in    
Wind  
Wind Speed 11 mph (WNW)    
Max Wind Speed 22 mph    
Max Gust Speed 31 mph    
Visibility 10 miles    
Events      
T = Trace of Precipitation, MM = Missing Value Source: NWS Daily Summary

Daily Weather History Graph

Daily Weather History Graph

Search for Another Location

Airport or City:

Trip Planner

Search our weather history database for the weather conditions in past years. The results will help you decide how hot, cold, wet, or windy it might be!

Date:

Astronomy

Apr. 24, 2013 Rise Set
Actual Time 7:01 AM CDT 8:44 PM CDT
Civil Twilight 6:32 AM CDT 9:14 PM CDT
Nautical Twilight 5:56 AM CDT 9:49 PM CDT
Astronomical Twilight 5:18 AM CDT 10:28 PM CDT
Moon 7:50 PM CDT (4/24) 6:07 AM CDT (4/24)
Length of Visible Light 14h 41m
Length of Day
13h 43m
Waxing Gibbous, 98% of the Moon is Illuminated
Apr 24
Waxing Gibbous
Apr 25
Full
May 2
Last Quarter
May 9
New
May 17
First Quarter

Hourly Weather History & Observations

Time (CDT) Temp. Windchill Dew Point Humidity Pressure Visibility Wind Dir Wind Speed Gust Speed Precip Events Conditions
12:15 AM 27.5 °F 18.6 °F 23.7 °F 86% 30.12 in 10.0 mi WSW 9.2 mph - N/A   Clear
12:35 AM 27.7 °F 18.2 °F 23.4 °F 84% 30.12 in 10.0 mi WSW 10.4 mph - N/A   Clear
12:55 AM 27.9 °F 18.4 °F 21.9 °F 78% 30.12 in 10.0 mi WSW 10.4 mph - N/A   Clear
1:15 AM 28.0 °F 17.5 °F 20.3 °F 73% 30.12 in 10.0 mi WSW 12.7 mph - N/A   Clear
1:35 AM 27.5 °F 18.6 °F 20.3 °F 74% 30.12 in 10.0 mi West 9.2 mph - N/A   Clear
1:55 AM 27.3 °F 17.1 °F 19.8 °F 73% 30.12 in 10.0 mi WSW 11.5 mph - N/A   Clear
2:15 AM 27.1 °F 16.9 °F 19.4 °F 73% 30.12 in 10.0 mi WSW 11.5 mph - N/A   Clear
2:35 AM 27.5 °F 18.0 °F 19.6 °F 72% 30.11 in 10.0 mi WSW 10.4 mph - N/A   Clear
2:55 AM 27.0 °F 16.7 °F 19.4 °F 73% 30.10 in 10.0 mi WSW 11.5 mph - N/A   Clear
3:15 AM 26.6 °F 15.7 °F 19.4 °F 74% 30.10 in 10.0 mi WSW 12.7 mph - N/A   Clear
3:35 AM 26.6 °F 17.5 °F 19.4 °F 74% 30.09 in 10.0 mi WSW 9.2 mph - N/A   Clear
3:55 AM 26.2 °F 15.8 °F 19.8 °F 76% 30.08 in 10.0 mi WSW 11.5 mph - N/A   Clear
4:15 AM 24.8 °F 16.9 °F 19.4 °F 80% 30.08 in 10.0 mi WSW 6.9 mph - N/A   Clear
4:35 AM 25.7 °F 17.1 °F 19.8 °F 78% 30.08 in 10.0 mi WSW 8.1 mph - N/A   Clear
5:15 AM 24.1 °F 16.0 °F 19.0 °F 81% 30.08 in 10.0 mi West 6.9 mph - N/A   Clear
5:35 AM 23.7 °F - 19.2 °F 83% 30.07 in 10.0 mi Calm Calm - N/A   Clear
5:55 AM 23.9 °F 16.8 °F 19.4 °F 83% 30.06 in 10.0 mi West 5.8 mph - N/A   Clear
6:15 AM 23.0 °F 14.7 °F 19.8 °F 87% 30.07 in 10.0 mi West 6.9 mph - N/A   Clear
6:35 AM 23.5 °F 17.6 °F 20.3 °F 87% 30.08 in 10.0 mi West 4.6 mph - N/A   Clear
6:55 AM 25.0 °F 14.8 °F 21.2 °F 86% 30.08 in 10.0 mi WNW 10.4 mph - N/A   Clear
7:15 AM 26.1 °F 16.2 °F 20.3 °F 79% 30.08 in 10.0 mi WNW 10.4 mph - N/A   Clear
7:35 AM 26.6 °F 15.7 °F 19.9 °F 76% 30.09 in 10.0 mi WNW 12.7 mph - N/A   Clear
7:55 AM 27.5 °F 16.8 °F 19.0 °F 71% 30.09 in 10.0 mi WNW 12.7 mph - N/A   Clear
8:15 AM 28.4 °F 18.0 °F 19.2 °F 69% 30.10 in 10.0 mi WNW 12.7 mph - N/A   Clear
8:35 AM 30.2 °F 20.8 °F 20.3 °F 67% 30.10 in 10.0 mi WNW 11.5 mph - N/A   Clear
8:55 AM 32.7 °F 23.4 °F 20.7 °F 61% 30.12 in 10.0 mi WNW 12.7 mph - N/A   Clear
9:15 AM 35.4 °F 26.8 °F 20.7 °F 55% 30.12 in 10.0 mi WNW 12.7 mph - N/A   Clear
9:35 AM 37.2 °F 30.0 °F 19.2 °F 48% 30.12 in 10.0 mi NW 10.4 mph - N/A   Clear
9:55 AM 39.9 °F 33.4 °F 12.7 °F 33% 30.12 in 10.0 mi NW 10.4 mph - N/A   Scattered Clouds
10:15 AM 41.4 °F 35.7 °F 7.9 °F 25% 30.12 in 10.0 mi NW 9.2 mph - N/A   Mostly Cloudy
10:35 AM 41.4 °F 34.7 °F 6.4 °F 24% 30.12 in 10.0 mi NW 11.5 mph 17.3 mph N/A   Overcast
10:55 AM 42.4 °F 37.0 °F 7.9 °F 24% 30.13 in 10.0 mi WNW 9.2 mph - N/A   Overcast
11:15 AM 44.1 °F 38.6 °F 8.8 °F 24% 30.13 in 10.0 mi WNW 10.4 mph - N/A   Overcast
11:35 AM 45.9 °F 38.8 °F 8.6 °F 22% 30.13 in 10.0 mi NW 17.3 mph - N/A   Overcast
11:55 AM 46.0 °F 39.0 °F 9.7 °F 23% 30.13 in 10.0 mi NNW 17.3 mph 23.0 mph N/A   Overcast
12:15 PM 46.0 °F 41.0 °F 10.9 °F 24% 30.13 in 10.0 mi NW 10.4 mph 19.6 mph N/A   Mostly Cloudy
12:35 PM 47.1 °F - 11.5 °F 24% 30.13 in 10.0 mi NW 12.7 mph 24.2 mph N/A   Clear
12:55 PM 47.5 °F - 12.9 °F 25% 30.13 in 10.0 mi NW 15.0 mph 27.6 mph N/A   Clear
1:15 PM 48.6 °F - 14.0 °F 25% 30.13 in 10.0 mi WNW 13.8 mph 21.9 mph N/A   Scattered Clouds
1:35 PM 48.4 °F - 13.5 °F 25% 30.13 in 10.0 mi North 17.3 mph 25.3 mph N/A   Mostly Cloudy
1:55 PM 47.7 °F - 13.8 °F 26% 30.13 in 10.0 mi NW 10.4 mph 20.7 mph N/A   Overcast
2:15 PM 48.0 °F - 13.3 °F 25% 30.12 in 10.0 mi NNW 16.1 mph 20.7 mph N/A   Overcast
2:35 PM 46.9 °F - 16.2 °F 29% 30.13 in 10.0 mi NW 9.2 mph 23.0 mph N/A   Overcast
2:55 PM 47.8 °F - 15.1 °F 27% 30.13 in 10.0 mi NNW 15.0 mph 23.0 mph N/A   Mostly Cloudy
3:15 PM 51.3 °F - 15.4 °F 24% 30.13 in 10.0 mi NW 20.7 mph 26.5 mph N/A   Scattered Clouds
3:35 PM 47.3 °F - 16.7 °F 30% 30.13 in 10.0 mi NW 17.3 mph 23.0 mph N/A   Mostly Cloudy
3:55 PM 47.7 °F - 17.1 °F 30% 30.13 in 10.0 mi NW 12.7 mph 24.2 mph N/A   Mostly Cloudy
4:15 PM 48.7 °F - 16.9 °F 28% 30.13 in 10.0 mi NW 13.8 mph 23.0 mph N/A   Mostly Cloudy
4:35 PM 50.4 °F - 16.3 °F 26% 30.12 in 10.0 mi NW 15.0 mph 28.8 mph N/A   Scattered Clouds
4:55 PM 49.6 °F - 18.1 °F 29% 30.12 in 10.0 mi North 15.0 mph 23.0 mph N/A   Scattered Clouds
5:15 PM 50.5 °F - 16.9 °F 26% 30.12 in 10.0 mi NNW 20.7 mph 26.5 mph N/A   Scattered Clouds
5:35 PM 51.1 °F - 16.5 °F 25% 30.12 in 10.0 mi NNW 19.6 mph 24.2 mph N/A   Clear
5:55 PM 50.4 °F - 16.5 °F 26% 30.12 in 10.0 mi NW 19.6 mph 31.1 mph N/A   Clear
6:15 PM 50.7 °F - 16.3 °F 26% 30.12 in 10.0 mi NNW 21.9 mph 28.8 mph N/A   Clear
6:35 PM 49.1 °F - 17.6 °F 29% 30.13 in 10.0 mi NNW 17.3 mph 27.6 mph N/A   Scattered Clouds
6:55 PM 49.1 °F - 17.4 °F 28% 30.13 in 10.0 mi NW 11.5 mph - N/A   Scattered Clouds
7:15 PM 49.3 °F - 17.1 °F 28% 30.13 in 10.0 mi NNW 15.0 mph - N/A   Clear
7:35 PM 47.8 °F - 17.6 °F 30% 30.13 in 10.0 mi NNW 9.2 mph - N/A   Clear
7:55 PM 47.7 °F - 16.9 °F 29% 30.13 in 10.0 mi NNW 10.4 mph - N/A   Clear
8:15 PM 45.1 °F 40.3 °F 19.2 °F 36% 30.13 in 10.0 mi North 9.2 mph - N/A   Clear
8:35 PM 41.5 °F 37.8 °F 20.7 °F 43% 30.13 in 10.0 mi NNE 5.8 mph - N/A   Clear
8:55 PM 38.5 °F 35.0 °F 21.6 °F 51% 30.13 in 10.0 mi NE 4.6 mph - N/A   Clear
10:15 PM 35.4 °F 31.5 °F 22.5 °F 59% 30.16 in 10.0 mi NE 4.6 mph - N/A   Clear
10:35 PM 31.3 °F 25.6 °F 21.9 °F 68% 30.17 in 10.0 mi SE 5.8 mph - N/A   Clear
10:55 PM 30.0 °F 23.2 °F 21.9 °F 72% 30.17 in 10.0 mi SSE 6.9 mph - N/A   Clear
11:15 PM 30.2 °F 23.4 °F 23.2 °F 75% 30.17 in 10.0 mi South 6.9 mph - N/A   Clear
11:35 PM 29.1 °F 22.1 °F 23.7 °F 80% 30.17 in 10.0 mi South 6.9 mph - N/A   Clear
11:55 PM 30.4 °F 21.5 °F 24.8 °F 80% 30.17 in 10.0 mi South 10.4 mph - N/A   Clear